Hourly Weather Abancay

Today, 27 November, Friday

Time Temperature Precipitation Wind Pressure Humidity
00:00 +14°C° 0 mm 1 mps 544 mmHg 78%
01:00 +13°C° 0 mm 1 mps 543 mmHg 79%
02:00 +13°C° 0 mm 1 mps 543 mmHg 79%
03:00 +13°C° 0 mm 1 mps 543 mmHg 79%
04:00 +13°C° 0 mm 1 mps 543 mmHg 79%
05:00 +14°C° 0 mm 1 mps 543 mmHg 76%
06:00 +15°C° 0 mm 1 mps 544 mmHg 73%
07:00 +16°C° 0 mm 1 mps 545 mmHg 69%
08:00 +18°C° 0.3 mm 1 mps 546 mmHg 65%
09:00 +19°C° 0.3 mm 1 mps 546 mmHg 61%
10:00 +20°C° 0.3 mm 2 mps 547 mmHg 57%
11:00 +20°C° 1.1 mm 2 mps 546 mmHg 57%
12:00 +20°C° 1.1 mm 3 mps 546 mmHg 57%
13:00 +21°C° 1.1 mm 3 mps 545 mmHg 58%
14:00 +20°C° 0.8 mm 3 mps 545 mmHg 60%
15:00 +19°C° 0.8 mm 3 mps 544 mmHg 63%
16:00 +19°C° 0.8 mm 3 mps 544 mmHg 66%
17:00 +17°C° 0.4 mm 2 mps 544 mmHg 72%
18:00 +16°C° 0.4 mm 2 mps 544 mmHg 78%
19:00 +15°C° 0.4 mm 1 mps 544 mmHg 85%
20:00 +14°C° 0.4 mm 1 mps 545 mmHg 86%
21:00 +14°C° 0.4 mm 1 mps 545 mmHg 87%
22:00 +14°C° 0.4 mm 1 mps 545 mmHg 88%
23:00 +14°C° 0.3 mm 1 mps 545 mmHg 87%

Tomorrow, 28 November, Saturday

Time Temperature Precipitation Wind Pressure Humidity
00:00 +13°C° 0.3 mm 1 mps 544 mmHg 87%
01:00 +13°C° 0.3 mm 1 mps 544 mmHg 86%
02:00 +13°C° 0.1 mm 1 mps 544 mmHg 86%
03:00 +13°C° 0.1 mm 1 mps 543 mmHg 86%
04:00 +13°C° 0.1 mm 1 mps 543 mmHg 86%
05:00 +14°C° 0 mm 1 mps 544 mmHg 82%
06:00 +13°C° 0 mm 0 mps 545 mmHg 78%
07:00 +14°C° 0 mm 0 mps 546 mmHg 74%
08:00 +18°C° 0.1 mm 1 mps 546 mmHg 67%
09:00 +19°C° 0.1 mm 1 mps 547 mmHg 61%
10:00 +21°C° 0.1 mm 1 mps 548 mmHg 55%
11:00 +20°C° 0.6 mm 2 mps 547 mmHg 55%
12:00 +21°C° 0.6 mm 2 mps 546 mmHg 56%
13:00 +21°C° 0.6 mm 3 mps 546 mmHg 56%
14:00 +20°C° 0.9 mm 3 mps 545 mmHg 61%
15:00 +19°C° 0.9 mm 3 mps 544 mmHg 67%
16:00 +18°C° 0.9 mm 3 mps 543 mmHg 72%
17:00 +17°C° 0.4 mm 3 mps 543 mmHg 79%
18:00 +16°C° 0.4 mm 2 mps 543 mmHg 85%
19:00 +14°C° 0.4 mm 2 mps 543 mmHg 92%
20:00 +14°C° 0.2 mm 1 mps 544 mmHg 92%
21:00 +14°C° 0.2 mm 1 mps 544 mmHg 92%
22:00 +14°C° 0.2 mm 1 mps 545 mmHg 92%
23:00 +14°C° 0.1 mm 1 mps 545 mmHg 92%

Day after tomorrow, 29 November, Sunday

Time Temperature Precipitation Wind Pressure Humidity
00:00 +13°C° 0.1 mm 0 mps 544 mmHg 91%
01:00 +12°C° 0.1 mm 0 mps 544 mmHg 91%
02:00 +12°C° 0.1 mm 0 mps 544 mmHg 91%
03:00 +12°C° 0.1 mm 0 mps 544 mmHg 91%
04:00 +12°C° 0.1 mm 0 mps 543 mmHg 91%
05:00 +13°C° 0.1 mm 0 mps 544 mmHg 87%
06:00 +13°C° 0.1 mm 0 mps 544 mmHg 84%
07:00 +14°C° 0.1 mm 0 mps 545 mmHg 81%
08:00 +18°C° 0.3 mm 1 mps 546 mmHg 74%
09:00 +18°C° 0.3 mm 2 mps 546 mmHg 68%
10:00 +20°C° 0.3 mm 2 mps 547 mmHg 61%
11:00 +20°C° 0.6 mm 3 mps 546 mmHg 60%
12:00 +20°C° 0.6 mm 3 mps 546 mmHg 59%
13:00 +21°C° 0.6 mm 3 mps 545 mmHg 58%
14:00 +21°C° 0.5 mm 3 mps 545 mmHg 59%
15:00 +20°C° 0.5 mm 3 mps 545 mmHg 60%
16:00 +20°C° 0.5 mm 3 mps 544 mmHg 61%
17:00 +18°C° 0.1 mm 3 mps 544 mmHg 70%
18:00 +17°C° 0.1 mm 2 mps 544 mmHg 80%
19:00 +15°C° 0.1 mm 2 mps 543 mmHg 89%
20:00 +15°C° 0 mm 2 mps 544 mmHg 90%
21:00 +14°C° 0 mm 1 mps 544 mmHg 91%
22:00 +14°C° 0 mm 1 mps 545 mmHg 93%
23:00 +14°C° 0.1 mm 1 mps 544 mmHg 93%

30 November, Monday

Time Temperature Precipitation Wind Pressure Humidity
00:00 +14°C° 0.1 mm 1 mps 544 mmHg 94%
01:00 +14°C° 0.1 mm 1 mps 544 mmHg 94%
02:00 +14°C° 0 mm 1 mps 544 mmHg 93%
03:00 +14°C° 0 mm 1 mps 544 mmHg 93%
04:00 +14°C° 0 mm 1 mps 544 mmHg 92%
05:00 +14°C° 0 mm 1 mps 544 mmHg 89%
06:00 +13°C° 0 mm 0 mps 544 mmHg 86%
07:00 +14°C° 0 mm 0 mps 545 mmHg 83%
08:00 +18°C° 0.1 mm 1 mps 545 mmHg 75%
09:00 +19°C° 0.1 mm 1 mps 546 mmHg 67%
10:00 +20°C° 0.1 mm 2 mps 547 mmHg 59%
11:00 +21°C° 0.5 mm 2 mps 546 mmHg 57%
12:00 +22°C° 0.5 mm 3 mps 546 mmHg 55%
13:00 +22°C° 0.5 mm 3 mps 545 mmHg 53%
14:00 +22°C° 0.3 mm 3 mps 545 mmHg 54%
15:00 +22°C° 0.3 mm 3 mps 544 mmHg 55%
16:00 +21°C° 0.3 mm 4 mps 544 mmHg 57%
17:00 +19°C° 0.2 mm 3 mps 544 mmHg 66%
18:00 +17°C° 0.2 mm 2 mps 543 mmHg 75%
19:00 +16°C° 0.2 mm 2 mps 543 mmHg 84%
20:00 +15°C° 0.6 mm 2 mps 543 mmHg 86%
21:00 +15°C° 0.6 mm 1 mps 543 mmHg 88%
22:00 +15°C° 0.6 mm 1 mps 544 mmHg 90%
23:00 +14°C° 0.7 mm 1 mps 543 mmHg 90%

1 December, Tuesday

Time Temperature Precipitation Wind Pressure Humidity
00:00 +14°C° 0.7 mm 1 mps 543 mmHg 90%
01:00 +14°C° 0.7 mm 1 mps 543 mmHg 90%
02:00 +14°C° 1.4 mm 1 mps 543 mmHg 90%
03:00 +13°C° 1.4 mm 1 mps 542 mmHg 90%
04:00 +13°C° 1.4 mm 1 mps 542 mmHg 90%
05:00 +14°C° 0.2 mm 1 mps 543 mmHg 86%
06:00 +14°C° 0.2 mm 1 mps 544 mmHg 82%
07:00 +15°C° 0.2 mm 1 mps 544 mmHg 78%
08:00 +18°C° 0.2 mm 1 mps 545 mmHg 72%
09:00 +18°C° 0.2 mm 2 mps 545 mmHg 67%
10:00 +20°C° 0.2 mm 2 mps 546 mmHg 61%
11:00 +20°C° 0.8 mm 3 mps 546 mmHg 60%
12:00 +21°C° 0.8 mm 3 mps 545 mmHg 58%
13:00 +22°C° 0.8 mm 3 mps 545 mmHg 57%
14:00 +21°C° 0.9 mm 3 mps 544 mmHg 60%
15:00 +20°C° 0.9 mm 4 mps 544 mmHg 64%
16:00 +20°C° 0.9 mm 4 mps 543 mmHg 67%
17:00 +18°C° 0.8 mm 3 mps 543 mmHg 75%
18:00 +16°C° 0.8 mm 3 mps 543 mmHg 83%
19:00 +15°C° 0.8 mm 2 mps 543 mmHg 90%
20:00 +14°C° 1 mm 2 mps 543 mmHg 90%
21:00 +14°C° 1 mm 2 mps 544 mmHg 91%
22:00 +14°C° 1 mm 2 mps 544 mmHg 91%
23:00 +13°C° 0.4 mm 2 mps 543 mmHg 89%

2 December, Wednesday

Time Temperature Precipitation Wind Pressure Humidity
00:00 +13°C° 0.4 mm 2 mps 543 mmHg 88%
01:00 +13°C° 0.4 mm 1 mps 543 mmHg 86%
02:00 +13°C° 0.1 mm 1 mps 543 mmHg 86%
03:00 +13°C° 0.1 mm 1 mps 543 mmHg 86%
04:00 +12°C° 0.1 mm 0 mps 542 mmHg 85%
05:00 +13°C° 0 mm 0 mps 543 mmHg 82%
06:00 +13°C° 0 mm 0 mps 544 mmHg 79%
07:00 +14°C° 0 mm 0 mps 544 mmHg 77%
08:00 +16°C° 0.3 mm 1 mps 545 mmHg 71%
09:00 +19°C° 0.3 mm 1 mps 545 mmHg 66%
10:00 +19°C° 0.3 mm 2 mps 546 mmHg 61%
11:00 +20°C° 0.9 mm 2 mps 546 mmHg 60%
12:00 +21°C° 0.9 mm 2 mps 545 mmHg 58%
13:00 +22°C° 0.9 mm 3 mps 545 mmHg 57%
14:00 +21°C° 1 mm 3 mps 545 mmHg 60%
15:00 +20°C° 1 mm 3 mps 544 mmHg 64%
16:00 +20°C° 1 mm 4 mps 544 mmHg 67%
17:00 +18°C° 0.6 mm 3 mps 544 mmHg 75%
18:00 +17°C° 0.6 mm 2 mps 543 mmHg 83%
19:00 +15°C° 0.6 mm 2 mps 543 mmHg 91%
20:00 +15°C° 0.2 mm 2 mps 544 mmHg 91%
21:00 +15°C° 0.2 mm 1 mps 544 mmHg 91%
22:00 +15°C° 0.2 mm 1 mps 545 mmHg 92%
23:00 +14°C° 0.5 mm 1 mps 544 mmHg 92%
Show more

We Need Your Consent

Meteoprog and our Service Providers may store and access personal data such as cookies, device identifiers or other similar technologies on your device and process such data to personalise content and ads, as well as provide social media features and to analyse the traffic.

  • Store and/or access information on your device

    Cookies, device identifiers or other information can be stored or accessed on your device for the purposes indicated above.

  • Personalised ads and content, ad and content measurement, audience insights, and products development

    Ads and content can be personalised based on a profile. More data can be added to better personalise ads and content. Ad and content performance can be measured. Insights about the audience who saw the ads and content can be derived. Such data can be used to develop or improve user’s experience, systems and software.

By clicking ‘I Agree’ you will allow the use of indicated cookies, device identifiers, web beacons or other similar technologies. Your settings can be changed in the browser on your device.

For certain purposes, legitimate interests may be relied on, rather than consent. You can read more about this in our Privacy and Cookie Policy.